Powrót do katalogu

SL-8 DEB

AktywnyLEO
NORAD 21400·DEBRIS·🇷🇺 Russia

Wystrzelony Feb 12, 1991 z Plesetsk Cosmodrome

Loading…

Następne Przeloty (najbliższe 24 godziny)

TLE

ŚwieżeSource: Space-Track

Epoka: Sep 14, 2026, 15:07 UTC

1 21400U 91009BP  26257.63027381 -.00000007  00000-0  62019-4 0  9998
2 21400  73.9686 200.5089 0184269 350.9535 183.1886 12.36848536530517

Śledź SL-8 DEB w czasie rzeczywistym z AllMySat

Download on the App Store